Regional Weather Roundup
Issued by NWS

Home | Current Version | Previous Version | Graphics & Text | Print | Product List | Glossary On
Versions: 1 2 3 4 5 6 7 8 9 10 11 12 13 14 15 16 17 18 19 20 21 22 23 24 25 26 27 28 29 30 31 32 33 34 35 36 37 38 39 40 41 42 43 44 45 46 47 48 49 50
000
ASUS43 KTOP 270708
RWRKS

WEATHER ROUNDUP FOR KANSAS
NATIONAL WEATHER SERVICE GOODLAND KS
200 AM CDT TUE JUN 27 2017

NOTE:  "FAIR" INDICATES FEW OR NO CLOUDS BELOW 12,000 FEET WITH NO
SIGNIFICANT WEATHER AND/OR OBSTRUCTIONS TO VISIBILITY.

KSZ001>006-013>018-027>032-041>047-270800-
NORTHWEST KANSAS

CITY           SKY/WX    TMP DP  RH WIND       PRES   REMARKS
GOODLAND       CLOUDY    61  58  90 SE14      30.10F
HAYS           CLEAR     63  61  93 E10       30.09F
HILL CITY      PTCLDY    63  61  93 E8        30.11F
RUSSELL        PTCLDY    63  60  90 E13       30.08F
$$

KSZ061>065-074>080-084>089-270800-
SOUTHWEST KANSAS

CITY           SKY/WX    TMP DP  RH WIND       PRES   REMARKS
DODGE CITY     PTCLDY    66  61  84 E6        30.07F
ELKHART          N/A     71  51  49 S9          N/A
GARDEN CITY    CLOUDY    66  61  84 E13       30.06F
GREAT BEND     CLEAR     64  61  90 E8        30.08F
LIBERAL        MOCLDY    71  62  73 S13       30.06F
PRATT          PTCLDY    64  58  80 E8        30.07S
$$

KSZ066>073-081>083-090>101-270800-
SOUTHEAST KANSAS

CITY           SKY/WX    TMP DP  RH WIND       PRES   REMARKS
CHANUTE        CLOUDY    64  62  93 E5        30.10S
COFFEYVILLE    CLEAR     65  63  93 E7        30.08F
HUTCHINSON     CLOUDY    67  62  84 E10       30.08F
MEDICINE LODGE   N/A     69  61  75 E9        30.05S
NEWTON         LGT RAIN  64  62  93 E13       30.10S
PARSONS        CLEAR     64  62  93 VRB3      30.10F
WICHITA INTL   MOCLDY    67  66  97 SE8       30.08S
WICHITA JABRA  MOCLDY    65  64  97 NE8       30.10R
WICHITA MCCONL PTCLDY    67  64  90 SE6       30.08S
WINFIELD       CLEAR     67  65  93 E6        30.08S
$$

KSZ007>012-019>026-033>040-048>060-102>105-270800-
NORTHEAST KANSAS

CITY           SKY/WX    TMP DP  RH WIND       PRES   REMARKS
CONCORDIA      PTCLDY    59  59 100 E5        30.13F FOG
EMPORIA          N/A     62  61  96 E7        30.11F
LAWRENCE       CLEAR     56  56 100 CALM      30.14S
MANHATTAN      CLEAR     61  59  93 CALM      30.12F
MARYSVILLE     CLEAR     55  55 100 CALM      30.14S FOG
OLATHE IND     CLEAR     58  56  93 E6        30.14F
OLATHE EXE     CLEAR     58  58 100 E7        30.14S
SALINA         MOCLDY    67  60  78 E7        30.10F
TOPEKA BILLARD CLEAR     59  59 100 E3        30.14S
TOPEKA FORBES  CLEAR     60  59  96 CALM      30.13F
$$



USA.gov is the U.S. government's official web portal to all federal, state and local government web resources and services.